#timestamp,LO_Frequency,Hit,StdDev 
1633294815.2,286047000.2,N
1633294835.0,286047000.6,N
1633294835.9,286047000.6,N
1633294855.8,286047000.3,N
1633294875.6,286047000.1,N
1633294895.5,286047000.0,N
1633294915.3,286046999.8,N
1633294935.1,286047002.3,N
1633294955.9,286047000.1,N
1633294975.7,286046999.8,N
1633294995.5,286047002.8,N
1633295015.4,286047001.9,N
1633295035.2,286047002.6,N
1633295055.1,286047002.4,N
1633295056.0,286047002.4,N
1633295075.8,286047001.9,N
1633295095.6,286047001.5,N
1633295115.5,286046999.8,N
1633295135.3,286047000.6,N
1633295155.1,286047000.0,N
1633295175.9,286047000.5,N
1633295195.7,286047000.9,N
1633295215.6,286047000.5,N
1633295235.4,286047000.4,N
1633295255.2,286047001.1,N
1633295275.1,286046998.2,N
1633295276.0,286046998.2,N
1633295295.8,286047000.4,N
1633295315.7,286046998.2,N
1633295335.5,286046998.1,N
1633295355.3,286047001.0,N
1633295375.2,286046999.9,N
1633295395.0,286047000.3,N
1633295395.9,286047000.3,N
1633295415.7,286047001.0,N
1633295435.6,286047000.0,N
1633295455.4,286047000.4,N
1633295475.3,286047000.9,N
1633295495.1,286047000.8,N
1633295515.8,286046998.3,N
1633295535.7,286046999.4,N
1633295555.5,286046998.8,N
1633295575.4,286046999.3,N
1633295595.2,286046997.6,N
1633295615.0,286046999.1,N
1633295615.9,286046999.1,N
1633295635.8,286046999.4,N
1633295655.6,286046998.6,N
1633295675.5,286046998.7,N
1633295695.3,286046998.4,N
1633295715.1,286047001.1,N
1633295735.9,286047001.2,N
1633295755.7,286047000.9,N
1633295775.5,286046998.2,N
1633295795.4,286046998.3,N
1633295815.2,286047000.3,N
1633295835.1,286047000.8,N
1633295836.0,286047000.8,N
1633295855.8,286047000.4,N
1633295875.6,286046999.9,N
1633295895.5,286047000.5,N
1633295915.3,286047002.7,N
1633295935.2,286047002.6,N
1633295955.9,286047002.4,N
1633295975.7,286047002.7,N
1633295995.6,286047002.7,N
1633296015.4,286047001.9,N
1633296035.2,286047001.6,N
1633296055.1,286047001.6,N
1633296056.0,286047001.6,N
1633296075.8,286047004.4,N
1633296095.7,286047004.3,N
1633296115.5,286047002.1,N
1633296135.3,286047004.3,N
1633296155.2,286047003.6,N
1633296175.0,286047003.6,N
1633296175.9,286047003.6,N
1633296195.8,286047004.1,N
1633296215.6,286047004.4,N
1633296235.4,286047001.9,N
1633296255.3,286047004.1,N
1633296275.1,286047004.4,N
1633296295.8,286047003.6,N
1633296315.7,286047004.1,N
1633296335.5,286047001.8,N
1633296355.4,286047000.0,N
1633296375.2,286047001.7,N
1633296395.0,286047002.3,N
1633296395.9,286047002.3,N
1633296415.8,286047002.4,N
1633296435.6,286047002.8,N
1633296455.4,286047002.5,N
1633296475.3,286047002.4,N
1633296495.1,286047002.8,N
1633296515.9,286047000.1,N
1633296535.7,286047001.9,N
1633296555.5,286047002.5,N
1633296575.4,286047002.1,N
1633296595.2,286047001.8,N
1633296615.0,286047003.1,N
1633296616.0,286047003.1,N
1633296635.8,286047001.8,N
1633296655.6,286047004.2,Y
1633296675.5,286046999.4,P
1633296695.3,286046998.5,N
1633296715.1,286047001.0,N
1633296735.9,286046998.5,N
1633296755.7,286046998.9,N
1633296775.6,286046999.4,N
1633296795.4,286046998.8,N
1633296815.2,286046998.2,N
1633296835.1,286046998.7,N
1633296836.0,286046998.7,N
1633296855.8,286046999.0,N
1633296875.7,286046998.7,N
1633296895.5,286046996.6,N
1633296915.3,286046996.7,N
1633296935.3,286046997.1,N
1633296955.1,286046998.4,N
1633296956.0,286046998.4,N
1633296975.8,286046998.9,N
1633296995.7,286046999.6,N
1633297015.5,286046999.5,N
1633297035.3,286046996.6,N
1633297055.2,286046998.6,N
1633297075.0,286046998.5,N
1633297075.9,286046998.5,N
1633297095.8,286046999.0,N
1633297115.6,286046999.5,N
1633297135.4,286046998.6,N
1633297155.3,286046999.3,N
1633297175.1,286046999.2,N
1633297195.9,286046998.8,N
1633297215.7,286046998.4,N
1633297235.5,286046998.7,N
1633297255.4,286046999.1,N
1633297275.2,286047000.4,N
1633297295.0,286047000.2,N
1633297296.0,286047000.2,N
1633297315.8,286047000.3,N
1633297335.6,286047000.3,N
1633297355.5,286047000.4,N
1633297375.3,286047000.6,N
1633297395.1,286046999.9,N
1633297415.9,286047000.3,N
1633297435.7,286047002.4,N
1633297455.6,286046999.7,N
1633297475.4,286047001.2,N
1633297495.2,286047000.5,N
1633297515.1,286047000.3,N
1633297516.0,286047000.3,N
1633297535.8,286047001.2,N
1633297555.6,286046999.9,N
1633297575.5,286047000.7,N
1633297595.3,286047000.7,N
1633297615.2,286047001.0,N
1633297635.9,286047000.7,N
1633297655.7,286047002.4,N
1633297675.6,286047002.8,N
1633297695.4,286047002.2,N
1633297715.2,286047000.1,N
1633297735.1,286046999.9,N
1633297736.0,286046999.9,N
1633297755.1,286047000.5,N
1633297756.0,286047000.5,N
1633297775.8,286047000.5,N
1633297795.7,286047002.8,Y
1633297815.5,286047002.3,P
1633297835.4,286047002.8,P
1633297855.2,286047002.7,N
1633297875.0,286047000.2,N
1633297875.9,286047000.2,N
1633297895.8,286047000.1,N
1633297915.6,286047000.1,N
1633297935.4,286047000.2,N
1633297955.3,286047000.2,N
1633297975.1,286047000.1,N
1633297995.9,286046999.7,N
1633298015.7,286047000.1,N
1633298035.5,286047000.6,N
1633298055.4,286046999.9,N
1633298075.2,286047000.6,N
1633298095.0,286047000.1,N
1633298095.9,286047000.1,N
1633298115.8,286047000.1,N
1633298135.6,286047000.0,N
1633298155.5,286047002.5,N
1633298175.3,286047004.1,Y
1633298195.1,286047001.9,P
1633298215.9,286047002.3,P
1633298235.7,286047001.7,N
1633298255.6,286047002.7,Y
1633298275.4,286046998.9,P
1633298295.2,286046996.6,N
1633298315.1,286046998.4,N
1633298316.0,286046998.4,N
1633298335.8,286046998.7,N
1633298355.6,286046998.4,N
1633298375.5,286046998.9,N
1633298395.3,286046998.3,N
